Flag for Germany Weather past 2 weeks in Münster, North Rhine-Westphalia, Germany

Now
59 °F

Rain showers. Partly sunny.


Feels Like: 56 °F
Forecast: 50 / 59 °F
Wind: 15 mph from Northwest

Location: Muenster / Osnabrueck

Current Time: Sep 5, 2015 at 5:14:31 PM

Latest Report: Sep 5, 2015 at 4:20 PM


Visibility: 6 mi

Pressure: 29.95 "Hg

Humidity: 68%

Dew point: 48 °F

Location of MünsterLocation

Historic Weather in Münster — Graph

°F

Münster temperature yesterday

Maximum temperature yesterday: 64 °F (at 4:20 PM)
Minimum temperature yesterday: 52 °F (at 3:50 AM)
Average temperature yesterday: 57 °F

Past Weeks' High & Low Weather Summary

 TemperatureHumidityPressure
High90 °F (Aug 31, 5:20 PM)100% (Aug 24, 3:50 AM)30.24 "Hg (Aug 24, 3:50 AM)
Low50 °F (Aug 29, 3:20 AM)34% (Aug 23, 2:20 PM)29.53 "Hg (Aug 24, 5:20 PM)
Average64 °F75%29.92 "Hg
* Reported Aug 21 3:20 PM — Sep 5 3:50 PM, Münster, Weather by CustomWeather, © 2015

Note: Actual official high and low records may vary slightly from our data, if they occured in-between our weather recording intervals... More about our weather records

Advertising

Münster weather history for previous 24 hours

 ConditionsComfort  
Time TempWeatherWind HumidityBarometerVisibility
3:50 PM
Sat, Sep 5
59 °FSprinkles. Passing clouds.14 mph68%29.95 "HgN/A
3:20 PM61 °FSprinkles. Scattered clouds.15 mph68%29.95 "HgN/A
2:50 PM59 °FSprinkles. Scattered clouds.14 mph72%29.92 "HgN/A
2:20 PM57 °FRain showers. Scattered clouds.15 mph88%29.92 "HgN/A
1:50 PM61 °FSprinkles. Broken clouds.17 mph77%29.92 "HgN/A
1:20 PM59 °FScattered showers. Broken clouds.18 mph82%29.92 "HgN/A
12:20 PM57 °FSprinkles. Partly sunny.16 mph88%29.92 "HgN/A
11:50 AM59 °FSprinkles. Broken clouds.14 mph88%29.92 "HgN/A
11:20 AM57 °FBroken clouds.14 mph94%29.92 "HgN/A
10:50 AM55 °FLight rain. Partly sunny.15 mph94%29.92 "Hg6 mi
10:20 AM59 °FLight rain. Broken clouds.17 mph77%29.92 "Hg6 mi
9:50 AM57 °FPartly sunny.17 mph82%29.89 "HgN/A
9:20 AM57 °FScattered clouds.14 mph82%29.89 "HgN/A
8:50 AM55 °FScattered clouds.15 mph88%29.89 "HgN/A
8:20 AM55 °FScattered clouds.10 mph88%29.89 "HgN/A
7:50 AM55 °FScattered clouds.9 mph94%29.89 "HgN/A
7:20 AM55 °FPassing clouds.8 mph88%29.89 "HgN/A
6:50 AM55 °FPartly cloudy.8 mph94%29.89 "HgN/A
6:20 AM55 °FPartly cloudy.9 mph94%29.89 "HgN/A
5:50 AM55 °FPartly cloudy.12 mph88%29.89 "HgN/A
5:20 AM55 °FPassing clouds.8 mph88%29.89 "HgN/A
4:50 AM54 °FPassing clouds.8 mph94%29.89 "HgN/A
4:20 AM54 °FPassing clouds.8 mph94%29.89 "HgN/A
3:50 AM54 °FPassing clouds.9 mph100%29.89 "HgN/A
3:20 AM55 °FPartly cloudy.9 mph94%29.86 "HgN/A
2:50 AM55 °FPassing clouds.8 mph94%29.86 "HgN/A
2:20 AM55 °FPartly cloudy.9 mph94%29.86 "HgN/A
1:50 AM55 °FPassing clouds.10 mph100%29.86 "HgN/A
1:20 AM55 °FLight rain. Passing clouds.9 mph94%29.86 "Hg5 mi
12:50 AM55 °FPassing clouds.14 mph94%29.86 "Hg5 mi
12:20 AM55 °FLight rain. Passing clouds.13 mph94%29.86 "HgN/A
11:20 PM
Fri, Sep 4
55 °FLight rain. Passing clouds.12 mph94%29.86 "HgN/A
10:50 PM55 °FRain. Passing clouds.16 mph88%29.86 "HgN/A
10:20 PM55 °FLight rain. Passing clouds.14 mph88%29.86 "HgN/A
9:50 PM55 °FLight rain. Passing clouds.15 mph88%29.86 "HgN/A
9:20 PM55 °FCool.17 mph88%29.86 "HgN/A
8:50 PM57 °FLight rain. Partly sunny.16 mph82%29.86 "HgN/A
8:20 PM57 °FLight rain. Partly sunny.16 mph77%29.86 "HgN/A
7:50 PM59 °FLight rain. Broken clouds.15 mph68%29.83 "HgN/A
7:20 PM59 °FSprinkles. Broken clouds.14 mph68%29.86 "HgN/A
6:50 PM59 °FPartly sunny.16 mph68%29.86 "HgN/A
6:20 PM61 °FSprinkles. Broken clouds.21 mph63%29.86 "HgN/A
5:50 PM61 °FPartly sunny.16 mph63%29.86 "HgN/A
5:20 PM63 °FScattered clouds.14 mph59%29.86 "HgN/A
Weather by CustomWeather, © 2015

See weather overviewHow to use our weather pages